Home > Weather > Yokosuka > Past weeks

Flag for Japan Weather for the Past 2 Weeks in Yokosuka, Japan

Now
36 °F

Passing clouds.


Feels Like: 33 °F
Forecast: 40 / 54 °F
Wind: 3 mph from Southwest

Location: Tokyo International Airport

Current Time: Feb 9, 2016 at 7:19:45 AM

Latest Report: Feb 9, 2016 at 6:30 AM


Visibility: N/A

Pressure: 29.83 "Hg

Humidity: 81%

Dew point: 30 °F

Location of YokosukaLocation

Historic Weather in Yokosuka — Graph

°F

Yokosuka Temperature Yesterday

Maximum temperature yesterday: 48 °F (at 3:00 PM)
Minimum temperature yesterday: 37 °F (at 4:00 AM)
Average temperature yesterday: 42 °F

High & Low Weather Summary for the Past Weeks

 TemperatureHumidityPressure
High54 °F (Jan 27, 12:30 PM)100% (Jan 30, 2:00 AM)30.33 "Hg (Jan 30, 2:00 AM)
Low30 °F (Jan 25, 6:00 AM)15% (Jan 25, 1:30 PM)29.83 "Hg (Feb 6, 12:30 PM)
Average43 °F60%30.09 "Hg
* Reported Jan 25 6:00 AM — Feb 9 6:00 AM, Yokosuka, Weather by CustomWeather, © 2016

Note: Actual official high and low records may vary slightly from our data, if they occured in-between our weather recording intervals... More about our weather records

Advertising

Yokosuka Weather History for the Previous 24 Hours

 ConditionsComfort  
Time TempWeatherWind HumidityBarometerVisibility
6:00 AM
Tue, Feb 9
36 °FPassing clouds.6 mph81%29.83 "HgN/A
5:30 AM37 °FPassing clouds.3 mph81%29.83 "HgN/A
5:00 AM36 °FPassing clouds.3 mph81%29.86 "HgN/A
4:30 AM37 °FPassing clouds.2 mph75%29.83 "HgN/A
4:00 AM36 °FPassing clouds.5 mph81%29.86 "HgN/A
3:30 AM37 °FPassing clouds.3 mph81%29.86 "HgN/A
3:00 AM37 °FPassing clouds.3 mph81%29.89 "HgN/A
2:30 AM36 °FPassing clouds.6 mph81%29.89 "HgN/A
2:00 AM37 °FPassing clouds.5 mph75%29.92 "HgN/A
1:30 AM39 °FPassing clouds.3 mph70%29.92 "HgN/A
1:00 AM41 °FPassing clouds.1 mph70%29.92 "HgN/A
12:30 AM39 °FPassing clouds.2 mph70%29.95 "HgN/A
12:00 AM41 °FPassing clouds.6 mph66%29.95 "HgN/A
11:30 PM
Mon, Feb 8
41 °FPassing clouds.7 mph66%29.98 "HgN/A
11:00 PM41 °FPassing clouds.7 mph70%29.98 "HgN/A
10:30 PM41 °FPassing clouds.7 mph70%29.98 "HgN/A
10:00 PM41 °FPassing clouds.8 mph70%30.01 "HgN/A
9:30 PM41 °FPassing clouds.8 mph70%30.01 "HgN/A
9:00 PM41 °FPassing clouds.8 mph70%29.98 "HgN/A
8:30 PM41 °FPassing clouds.10 mph70%29.98 "HgN/A
8:00 PM43 °FClear.13 mph66%30.01 "Hg10 mi
7:30 PM43 °FPassing clouds.10 mph71%30.01 "HgN/A
7:00 PM43 °FPassing clouds.13 mph71%30.01 "HgN/A
6:30 PM45 °FPassing clouds.13 mph66%30.01 "HgN/A
6:00 PM45 °FPassing clouds.13 mph66%30.01 "HgN/A
5:30 PM45 °FPassing clouds.2 mph49%30.01 "HgN/A
5:00 PM46 °FPassing clouds.3 mph43%29.98 "HgN/A
4:30 PM46 °FPassing clouds.6 mph43%29.98 "HgN/A
4:00 PM48 °FPassing clouds.6 mph43%29.98 "HgN/A
3:30 PM48 °FPassing clouds.6 mph43%29.98 "HgN/A
3:00 PM48 °FPassing clouds.7 mph46%29.98 "HgN/A
2:30 PM46 °FPassing clouds.8 mph50%29.98 "HgN/A
2:00 PM46 °FPassing clouds.8 mph50%29.98 "HgN/A
1:30 PM46 °FPassing clouds.9 mph53%30.01 "HgN/A
1:00 PM45 °FScattered clouds.7 mph53%30.01 "HgN/A
12:30 PM45 °FPassing clouds.8 mph53%30.04 "HgN/A
12:00 PM45 °FScattered clouds.8 mph53%30.07 "HgN/A
11:30 AM43 °FPartly sunny.8 mph57%30.07 "HgN/A
11:00 AM41 °FPartly sunny.9 mph57%30.09 "HgN/A
10:00 AM41 °FPartly sunny.9 mph57%30.09 "HgN/A
9:30 AM41 °FBroken clouds.10 mph57%30.12 "HgN/A
8:30 AM39 °FScattered clouds.13 mph61%30.12 "HgN/A
8:00 AM39 °FPartly sunny.13 mph61%30.12 "HgN/A
7:30 AM37 °FPartly sunny.12 mph60%30.12 "HgN/A
7:00 AM37 °FPartly sunny.14 mph65%30.12 "HgN/A
Weather by CustomWeather, © 2016

See weather overviewHow to use our weather pages